Mountain Home, ID

4:08 AM MDT on May 28, 2017 (GMT -0600)
Mountain Home Air Force Base

Weather History for KMUO - March, 2014

Change the Weather History Date:

Saturday, March 22, 2014

  Actual Average Record
Temperature  
Mean Temperature 40 °F 44 °F  
Max Temperature 52 °F 56 °F 77 °F (1960)
Min Temperature 27 °F 31 °F 15 °F (1938)
Degree Days  
Heating Degree Days 25 21  
Month to date heating degree days 458 519  
Cooling Degree Days 0 0  
Month to date cooling degree days 0 0  
Moisture  
Dew Point 15 °F    
Average Humidity 42    
Maximum Humidity 74    
Minimum Humidity 18    
Precipitation  
Precipitation 0.00 in 0.04 in 0.58 in (1945)
Month to date precipitation 0.44 0.83  
Sea Level Pressure  
Sea Level Pressure 30.23 in    
Wind  
Wind Speed 12 mph (NW)    
Max Wind Speed 18 mph    
Max Gust Speed 21 mph    
Visibility 10 miles    
Events      
T = Trace of Precipitation, MM = Missing Value Source: NWS Daily Summary

Daily Weather History Graph

Daily Weather History Graph

Search for Another Location

Airport or City:

Trip Planner

Search our weather history database for the weather conditions in past years. The results will help you decide how hot, cold, wet, or windy it might be!

Date:

Astronomy

Mar. 22, 2014 Rise Set
Actual Time 7:43 AM MDT 7:58 PM MDT
Civil Twilight 7:14 AM MDT 8:26 PM MDT
Nautical Twilight 6:41 AM MDT 9:00 PM MDT
Astronomical Twilight 6:07 AM MDT 9:34 PM MDT
Moon 1:29 AM MDT (3/22) 11:22 AM MDT (3/22)
Length of Visible Light 13h 11m
Length of Day
12h 15m
Waning Gibbous, 65% of the Moon is Illuminated
Mar 22
Waning Gibbous
Mar 23
Last Quarter
Mar 30
New
Apr 7
First Quarter
Apr 15
Full

Hourly Weather History & Observations

Time (MDT) Temp. Windchill Dew Point Humidity Pressure Visibility Wind Dir Wind Speed Gust Speed Precip Events Conditions
12:58 AM 30.6 °F 20.7 °F 9.1 °F 41% 30.14 in 10.0 mi West 12.7 mph - N/A   Clear
1:58 AM 30.2 °F 21.3 °F 9.9 °F 43% 30.14 in 10.0 mi NNW 10.4 mph - N/A   Clear
2:58 AM 29.1 °F 18.4 °F 13.5 °F 52% 30.17 in 10.0 mi WNW 13.8 mph - N/A   Clear
3:58 AM 27.9 °F 17.8 °F 17.4 °F 65% 30.16 in 10.0 mi NW 11.5 mph - N/A   Clear
4:58 AM 29.3 °F 17.3 °F 19.4 °F 67% 30.18 in 10.0 mi WNW 17.3 mph - N/A   Clear
5:58 AM 28.6 °F 17.2 °F 19.2 °F 68% 30.19 in 10.0 mi WNW 15.0 mph - N/A   Clear
6:58 AM 27.7 °F 15.6 °F 19.6 °F 72% 30.22 in 10.0 mi WNW 16.1 mph - N/A   Clear
7:58 AM 26.8 °F 15.9 °F 19.6 °F 74% 30.26 in 10.0 mi NW 12.7 mph - N/A   Clear
8:58 AM 31.8 °F 20.2 °F 20.3 °F 62% 30.28 in 10.0 mi NW 18.4 mph - N/A   Clear
9:58 AM 37.0 °F 27.0 °F 18.3 °F 47% 30.29 in 10.0 mi NW 18.4 mph - N/A   Clear
10:58 AM 41.0 °F 32.8 °F 17.1 °F 38% 30.31 in 10.0 mi NW 16.1 mph - N/A   Clear
11:58 AM 44.1 °F 37.1 °F 14.7 °F 31% 30.30 in 10.0 mi WNW 15.0 mph - N/A   Clear
12:58 PM 46.2 °F 40.8 °F 10.9 °F 24% 30.30 in 10.0 mi NW 11.5 mph 18.4 mph N/A   Clear
1:58 PM 47.8 °F - 10.9 °F 23% 30.28 in 10.0 mi NW 13.8 mph 20.7 mph N/A   Clear
2:58 PM 49.6 °F - 7.7 °F 18% 30.26 in 10.0 mi NW 12.7 mph - N/A   Clear
3:58 PM 50.7 °F - 8.6 °F 18% 30.25 in 10.0 mi NNW 11.5 mph - N/A   Clear
4:58 PM 51.3 °F - 10.2 °F 19% 30.23 in 10.0 mi WNW 9.2 mph - N/A   Clear
5:58 PM 52.0 °F - 13.8 °F 22% 30.22 in 10.0 mi Variable 6.9 mph - N/A   Clear
6:58 PM 51.3 °F - 14.9 °F 24% 30.21 in 10.0 mi NNW 9.2 mph - N/A   Clear
7:58 PM 45.7 °F 43.4 °F 15.8 °F 30% 30.23 in 10.0 mi NW 4.6 mph - N/A   Clear
8:58 PM 44.4 °F 42.9 °F 14.7 °F 30% 30.22 in 10.0 mi North 3.5 mph - N/A   Clear
9:58 PM 37.2 °F - 15.4 °F 41% 30.23 in 10.0 mi NNE 2.3 mph - N/A   Clear
10:58 PM 35.1 °F - 14.9 °F 44% 30.22 in 10.0 mi NE 2.3 mph - N/A   Clear
11:58 PM 28.6 °F 23.5 °F 14.2 °F 55% 30.23 in 10.0 mi Variable 4.6 mph - N/A   Clear